User: anonymous   Login
Location: *
(51.5000°N, 0.1100°W)
Time: 00:06:35
(UTC+00:00)
Language:

Meteor 2-5 Rocket - Orbit

View from above orbital plane
View from above orbital plane
View from above satellite
View from above satellite

Ground track
Ground track

The orbit data is extracted from the following two-line orbital elements,

1 11608U 79095B   24194.47835919  .00000246  00000-0  13957-3 0  9992
2 11608  81.2112 224.7668 0054982 107.5943 253.1242 14.06368177292752
Epoch (UTC): 12 July 2024 11:28:50
Eccentricity: 0.0054982
inclination: 81.2112°
perigee height: 832 km
apogee height: 911 km
right ascension of ascending node: 224.7668°
argument of perigee: 107.5943°
revolutions per day: 14.06368177
mean anomaly at epoch: 253.1242°
orbit number at epoch: 29275

The dashed part of the orbit path shows where the satellite is in the earth's shadow,  

DLR